THOR ABLESTAR DEB, 210

Orbit data source: Space-Track

THOR ABLESTAR DEB, 210 is space debris in LEO originally from a launch on Thu, 29 Jun 1961 UTC launched from the Air Force Eastern Test Range (AFETR). Debris objects in space refer to the collection of defunct objects orbiting the Earth. Examples of debris include non-operational satellites, rocket bodies, and fragments generated from explosions, collisions, or faulty payload assembly.

Loading next visibility...
Identifier
210, 1961-015BE
Orbit
LEO
Last TLE update
8 hours ago
Origin
Manufacturer
Unknown
Mission
Spacecraft
Bus & Motor
Unknown
Mass
Unknown
Launch date (UTC)
1961-06-29 (64 years ago)
Launch vehicle
Unknown
Launch site
Air Force Eastern Test Range (AFETR)
Object type
Payload
Rocket body
Debris
Shape & HBR
Unknown
Radar Cross Section
Medium (>0.1 m² and <1 m²)

Expand to show TLE details & history

TLE from 8 hours ago
0 THOR ABLESTAR DEB
1   210U 61015BE  25199.14699790  .00000342  00000-0  34641-3 0  9997
2   210  66.4573 109.7638 0044864 175.6264 184.5212 13.88604584219414
Epoch: 2025-07-18T03:31Z
TLE epoch observation values (Epoch: 2025-07-18T03:31:40.618Z)
Latitude
-0.00003°
Longitude
120.64191°
Altitude
968.278 km
Speed
7.352 km/s
True Right ascension
07h 19m 03s
True Declination
0° 00' 00"
Sunlit
Object was in daylight at epoch
Visualization orbit readout
Latitude
27.5368°
Longitude
-73.20247°
Altitude
906.435 km
Speed
7.417 km/s
Apparent Right ascension
15h 44m 56s
Apparent Declination
-5° 24' 29"
Sunlit
Object is in full shadow
Visualization observer readout
Local Sidereal Time
23:55:17
Azimuth
287.954° WNW
Elevation
-28.149°
Doppler factor
1
Orbital elements
Apogee altitude
964.756 km
Perigee altitude
899.164 km
Semi-major axis
7,310.097 km
Eccentricity
0.00449
Inclination
66.4573°
RAAN
109.7638°
Arg. of periapsis
175.6264°
True anomaly
184.4809°
Mean anomaly
184.5212°
Eccentric anomaly
184.50103°
Mean motion
3.47263 °/min
Orbital period
103.67 mins
BSTAR
0.00034641
Loading maneuver chart data...
Loading SW <> Apogee altitude chart data...
|